Weather WX

World > North America > United States > Ohio

Verona, Ohio Regional Weather

Lat: 39.90N, Lon: 84.49W
Wx Zone: OHZ060
Warning FLW WEATHER ALERT - FLASH FLOOD WATCH (More Info. Click Here) Warning
Feedback

Verona, OH Regional Weather

Expires:201906160900;;150352
ASUS41 KCLE 160812
RWRCLE
OHIO REGIONAL WEATHER ROUNDUP
NATIONAL WEATHER SERVICE WILMINGTON, OH
400 AM EDT SUN JUN 16 2019

NOTE: "FAIR" INDICATES FEW OR NO CLOUDS BELOW 12,000 FEET WITH NO
SIGNIFICANT WEATHER AND/OR OBSTRUCTIONS TO VISIBILITY.


OHZ042-051>053-060>062-070>072-077>081-160900-
  SOUTHWEST OHIO
  
CITY           SKY/WX    TMP DP  RH WIND       PRES   REMARKS
CINC-COVINGTON CLOUDY    69  66  90 S5        29.84S                  
CINC-LUNKEN    CLOUDY    70  68  93 SE5       29.84S                  
HAMILTON       CLOUDY    69  68  96 CALM      29.83F                  
DAYTON         MOCLDY    69  66  90 S8        29.82F FOG              
WRIGHT-PAT AFB MOCLDY    67  67 100 S5        29.81F                  
DAYTON GENERAL RAIN      70  67  90 S9        29.82S FOG              
WILMINGTON     CLOUDY    67  67 100 SW12      29.83F                  
$$


SKY/WX - Weather  TMP - Temperature  DP - Dew Point  RH - Relative Humidity
WIND - Wind Direction/Speed PRES - Barometric Pressure VSB - Visibility
WCI - Wind Chill Index E13G22 Wind - East Wind 13 mph/Gusts of 22 mph